Location: Celina Division
(33.3022°N, 96.7580°W)
Time: 06:52:27
(UTC+00:00)

Sich 1 - Pass Details

Date: 08 December 2021
Orbit: 594 x 623 km, 82.5° (Epoch: 17 January)

Event Time Altitude Azimuth Distance (km) Brightness Sun altitude
Rises 12:22:26 0° 183° (S) 2,834 6.7 -11.6°
Reaches altitude 10° 12:24:39 10° 182° (S) 1,932 5.8 -11.2°
Maximum altitude 12:28:55 81° 95° (E) 608 3.1 -10.3°
Drops below altitude 10° 12:33:11 10° 9° (N) 1,935 5.5 -9.5°
Sets 12:35:23 0° 8° (N) 2,839 6.3 -9.1°
